Regional Weather Roundup
Issued by NWS

Home | Current Version | Previous Version | Graphics & Text | Print | Product List | Glossary On
Versions: 1 2 3 4 5 6 7 8 9 10 11 12 13 14 15 16 17 18 19 20 21 22 23 24 25 26 27
000
ASUS45 KBOI 160010
RWRID

IDAHO REGIONAL WEATHER ROUNDUP
NATIONAL WEATHER SERVICE BOISE ID
500 PM MST SUN JAN 15 2017

NOTE: "FAIR" INDICATES FEW OR NO CLOUDS BELOW 12000 FEET
WITH NO SIGNIFICANT WEATHER AND/OR OBSTRUCTIONS TO VISIBILITY

IDZ012-014-160100-
SOUTHWEST IDAHO


CITY           SKY/WX    TMP DP  RH WIND       PRES   REMARKS
BOISE          FAIR      12   5  73 NW7       30.35R WCI   1
CALDWELL       FAIR      10   3  73 NW3       30.41R
MOUNTAIN HOME  FAIR      10  10  99 NW5       30.34R WCI   1
$$

IDZ016-017-160100-
SOUTHCENTRAL IDAHO


CITY           SKY/WX    TMP DP  RH WIND       PRES   REMARKS
BURLEY         FAIR      16   9  74 NW6       30.21R WCI   7
JEROME         FAIR      10   6  84 W5        30.24R WCI   2
TWIN FALLS     CLOUDY    15  10  80 NW5       30.23R WCI   8
$$

IDZ019>023-160100-
SOUTHEAST IDAHO


CITY           SKY/WX    TMP DP  RH WIND       PRES   REMARKS
IDAHO FALLS    CLOUDY     8   3  80 SW8       30.18R WCI  -4
POCATELLO      CLOUDY    14   8  77 SW7       30.19S WCI   4
REXBURG        CLOUDY    10   4  76 W6        30.17R WCI   0
$$

IDZ006-010-011-018-031-032-160100-
CENTRAL IDAHO MOUNTAINS


CITY           SKY/WX    TMP DP  RH WIND       PRES   REMARKS
MCCALL         FAIR       8   3  80 S3        30.14R
HAILEY         CLEAR     16   7  67 CALM      30.14R
STANLEY          N/A     -1  -6  79 CALM      30.15S
SALMON         CLOUDY    -8 -15  71 CALM      30.40R
CHALLIS        FAIR     -13 -18  78 CALM      30.29R
$$

IDZ002-004-006-007-026-160100-
NORTHERN IDAHO


CITY           SKY/WX    TMP DP  RH WIND       PRES   REMARKS
LEWISTON       CLOUDY    14   9  80 CALM      30.43R
LOWELL           N/A     19  13  77 CALM      30.39R
COEUR D`ALENE  CLOUDY    15  11  83 W3        30.33R FOG
MULLAN PASS    FAIR      18  13  80 NW6       30.10S WCI  10
$$




USA.gov is the U.S. government's official web portal to all federal, state and local government web resources and services.